{"data":{"norad_id":59348,"epoch":"2026-09-21T21:33:24.743520Z","epoch_age_seconds":41393,"freshness":"FRESH","line1":"1 59348U 24060A   26264.89820305  .00000285  00000+0  19889-4 0  9999","line2":"2 59348  42.9998 221.1124 0001139 275.9628  84.1094 15.27574880140130","mean_motion":15.2757488,"eccentricity":0.0001139,"inclination_deg":42.9998,"raan_deg":221.1124,"arg_perigee_deg":275.9628,"mean_anomaly_deg":84.1094,"bstar":1.9889e-5,"rev_number":14013,"period_min":94.267064669196,"perigee_km":482.28293636183,"apogee_km":483.84591804694,"semimajor_km":6861.2014272044,"source":"CELESTRAK","updated_at":"2026-09-22T09:00:48.902725Z"}}